GFSFLT2_prec_precacc12_096.txt.gz
Total_Precipitation_Accumulation
0.00 0.00 0.00 0.00 0.01 0.03 0.04 0.05 0.18 0.35 0.27 0.70 1.33 2.10 1.80 1.38 0.83 0.61 0.65 0.56 0.16 0.07 0.03 0.01 0.00 0.00 0.00 0.00 0.00 0.00 0.00 0.00
0.00 0.01 0.00 0.00 0.00 0.02 0.07 0.16 0.26 0.24 0.26 0.47 0.72 1.08 1.32 1.21 0.80 0.57 0.71 0.60 0.22 0.03 0.02 0.00 0.00 0.00 0.00 0.00 0.00 0.00 0.00 0.00
0.00 0.01 0.00 0.00 0.00 0.01 0.05 0.15 0.13 0.09 0.31 0.70 0.71 0.67 1.01 1.03 0.84 0.56 0.60 0.59 0.36 0.06 0.00 0.00 0.00 0.00 0.00 0.00 0.00 0.00 0.00 0.00
0.00 0.01 0.00 0.00 0.00 0.01 0.01 0.02 0.01 0.00 0.09 0.65 0.94 0.47 0.80 0.65 0.79 0.64 0.60 0.68 0.31 0.22 0.01 0.00 0.00 0.00 0.00 0.00 0.00 0.00 0.00 0.00
0.00 0.00 0.01 0.00 0.00 0.00 0.01 0.01 0.03 0.01 0.04 0.45 1.31 0.51 0.70 0.63 0.69 0.72 0.66 0.92 0.40 0.22 0.03 0.00 0.00 0.00 0.00 0.00 0.00 0.00 0.00 0.00
0.00 0.00 0.00 0.01 0.00 0.00 0.00 0.01 0.05 0.04 0.03 0.06 0.74 0.51 0.54 0.68 0.40 0.46 0.54 0.85 0.34 0.09 0.01 0.00 0.00 0.00 0.00 0.00 0.00 0.00 0.00 0.00
0.00 0.00 0.00 0.00 0.00 0.00 0.00 0.00 0.01 0.09 0.08 0.01 0.31 0.45 0.39 0.70 0.37 0.31 0.36 0.78 0.26 0.05 0.01 0.00 0.00 0.00 0.00 0.00 0.00 0.00 0.00 0.00
0.00 0.00 0.00 0.00 0.00 0.00 0.00 0.00 0.00 0.03 0.08 0.05 0.02 0.15 0.29 0.69 0.49 0.28 0.23 0.48 0.25 0.07 0.01 0.00 0.00 0.00 0.00 0.00 0.00 0.00 0.00 0.00
0.00 0.00 0.00 0.00 0.00 0.00 0.00 0.00 0.01 0.02 0.05 0.08 0.03 0.02 0.10 0.32 0.41 0.19 0.15 0.19 0.18 0.06 0.01 0.00 0.00 0.00 0.00 0.00 0.00 0.00 0.00 0.00
0.00 0.00 0.00 0.00 0.00 0.00 0.00 0.00 0.01 0.02 0.05 0.08 0.03 0.02 0.02 0.05 0.16 0.18 0.11 0.10 0.06 0.02 0.00 0.00 0.00 0.00 0.00 0.00 0.00 0.00 0.00 0.00
0.00 0.00 0.00 0.00 0.00 0.00 0.00 0.00 0.01 0.02 0.05 0.10 0.10 0.07 0.05 0.06 0.12 0.12 0.09 0.05 0.02 0.01 0.00 0.00 0.00 0.00 0.00 0.00 0.00 0.00 0.00 0.00
0.00 0.00 0.00 0.00 0.00 0.00 0.00 0.00 0.00 0.01 0.03 0.13 0.19 0.15 0.20 0.21 0.17 0.17 0.07 0.03 0.01 0.00 0.00 0.00 0.00 0.00 0.00 0.00 0.00 0.00 0.00 0.00
0.00 0.00 0.00 0.00 0.00 0.00 0.00 0.00 0.00 0.00 0.03 0.07 0.28 0.36 0.31 0.44 0.39 0.42 0.33 0.03 0.02 0.00 0.00 0.00 0.00 0.00 0.00 0.00 0.00 0.00 0.00 0.00
0.00 0.00 0.00 0.00 0.00 0.00 0.00 0.00 0.00 0.00 0.01 0.02 0.06 0.35 0.60 0.44 0.41 0.43 0.52 0.21 0.05 0.00 0.00 0.00 0.00 0.00 0.00 0.00 0.00 0.00 0.00 0.00
0.00 0.00 0.00 0.00 0.00 0.00 0.00 0.00 0.00 0.00 0.01 0.01 0.03 0.09 0.27 0.52 0.37 0.36 0.42 0.23 0.09 0.02 0.00 0.00 0.00 0.00 0.00 0.00 0.00 0.00 0.00 0.00
0.00 0.00 0.00 0.00 0.00 0.00 0.00 0.00 0.00 0.00 0.00 0.01 0.02 0.08 0.14 0.27 0.47 0.36 0.31 0.22 0.12 0.03 0.00 0.00 0.00 0.00 0.00 0.00 0.00 0.00 0.00 0.00
0.00 0.00 0.00 0.00 0.00 0.00 0.00 0.00 0.00 0.00 0.00 0.00 0.01 0.02 0.09 0.16 0.27 0.39 0.39 0.31 0.23 0.08 0.01 0.00 0.00 0.01 0.00 0.00 0.00 0.03 0.05 0.01
0.00 0.00 0.00 0.00 0.00 0.00 0.00 0.00 0.00 0.00 0.00 0.00 0.00 0.01 0.04 0.06 0.16 0.21 0.34 0.41 0.33 0.20 0.05 0.02 0.02 0.05 0.01 0.01 0.01 0.01 0.04 0.03
0.00 0.00 0.00 0.01 0.00 0.00 0.00 0.00 0.00 0.00 0.00 0.00 0.00 0.01 0.01 0.03 0.03 0.04 0.09 0.18 0.39 0.29 0.19 0.12 0.06 0.05 0.06 0.03 0.03 0.01 0.02 0.02
0.00 0.00 0.00 0.00 0.00 0.00 0.00 0.00 0.00 0.00 0.00 0.00 0.00 0.00 0.00 0.00 0.00 0.00 0.01 0.03 0.07 0.13 0.10 0.08 0.09 0.05 0.04 0.03 0.02 0.02 0.02 0.02

GFSFLT2_prec_precacc12_099.txt.gz
Total_Precipitation_Accumulation
0.00 0.00 0.00 0.00 0.01 0.03 0.04 0.05 0.16 0.28 0.30 0.25 0.24 1.06 1.56 1.32 0.74 0.58 0.66 0.67 0.34 0.28 0.09 0.03 0.00 0.00 0.00 0.00 0.00 0.00 0.00 0.00
0.00 0.00 0.00 0.00 0.00 0.02 0.07 0.16 0.26 0.25 0.30 0.28 0.18 0.38 0.81 0.94 0.70 0.54 0.71 0.66 0.42 0.27 0.16 0.12 0.02 0.00 0.00 0.00 0.00 0.00 0.00 0.00
0.00 0.00 0.00 0.00 0.00 0.01 0.06 0.16 0.15 0.15 0.15 0.19 0.20 0.27 0.48 0.71 0.62 0.48 0.60 0.65 0.49 0.26 0.21 0.16 0.05 0.00 0.00 0.00 0.00 0.00 0.00 0.00
0.00 0.00 0.00 0.00 0.00 0.01 0.02 0.03 0.03 0.03 0.03 0.10 0.10 0.17 0.57 0.50 0.57 0.56 0.62 0.83 0.55 0.51 0.31 0.15 0.06 0.01 0.00 0.00 0.00 0.00 0.00 0.00
0.00 0.00 0.00 0.00 0.00 0.01 0.02 0.02 0.01 0.02 0.02 0.15 0.37 0.34 0.65 0.59 0.46 0.52 0.75 1.15 0.67 0.52 0.24 0.07 0.02 0.00 0.00 0.00 0.00 0.00 0.00 0.00
0.00 0.00 0.00 0.00 0.00 0.00 0.01 0.01 0.01 0.02 0.04 0.04 0.57 0.45 0.52 0.65 0.34 0.33 0.59 1.04 0.63 0.30 0.11 0.04 0.02 0.00 0.00 0.00 0.00 0.00 0.00 0.00
0.00 0.00 0.00 0.00 0.00 0.00 0.00 0.00 0.01 0.01 0.03 0.01 0.31 0.45 0.38 0.70 0.39 0.33 0.37 0.87 0.47 0.27 0.12 0.05 0.01 0.00 0.00 0.00 0.00 0.00 0.00 0.00
0.00 0.00 0.00 0.00 0.00 0.00 0.00 0.00 0.00 0.01 0.01 0.00 0.02 0.15 0.29 0.69 0.57 0.51 0.32 0.56 0.37 0.29 0.16 0.05 0.00 0.00 0.00 0.00 0.00 0.00 0.00 0.00
0.00 0.00 0.00 0.00 0.00 0.00 0.00 0.00 0.01 0.01 0.02 0.01 0.01 0.01 0.09 0.32 0.45 0.36 0.39 0.39 0.34 0.26 0.23 0.10 0.01 0.00 0.00 0.00 0.00 0.00 0.00 0.00
0.00 0.00 0.00 0.00 0.00 0.00 0.00 0.00 0.01 0.02 0.04 0.04 0.02 0.01 0.02 0.05 0.17 0.41 0.35 0.32 0.24 0.19 0.15 0.08 0.01 0.00 0.00 0.00 0.00 0.00 0.00 0.00
0.00 0.00 0.00 0.00 0.00 0.00 0.00 0.00 0.01 0.02 0.06 0.08 0.09 0.07 0.04 0.05 0.08 0.20 0.42 0.25 0.13 0.19 0.14 0.07 0.01 0.00 0.00 0.00 0.00 0.00 0.00 0.00
0.00 0.00 0.00 0.00 0.00 0.00 0.00 0.00 0.00 0.01 0.03 0.11 0.16 0.14 0.13 0.11 0.13 0.14 0.18 0.24 0.15 0.18 0.16 0.09 0.03 0.00 0.00 0.00 0.00 0.00 0.00 0.00
0.00 0.00 0.00 0.00 0.00 0.00 0.00 0.00 0.00 0.00 0.00 0.02 0.22 0.31 0.24 0.25 0.20 0.31 0.26 0.07 0.09 0.10 0.11 0.07 0.02 0.00 0.00 0.00 0.00 0.00 0.00 0.00
0.00 0.00 0.00 0.00 0.00 0.00 0.00 0.00 0.00 0.00 0.00 0.00 0.03 0.25 0.42 0.34 0.31 0.30 0.45 0.23 0.05 0.01 0.02 0.01 0.00 0.00 0.00 0.00 0.00 0.00 0.00 0.00
0.00 0.00 0.00 0.00 0.00 0.00 0.00 0.00 0.00 0.00 0.00 0.01 0.02 0.06 0.28 0.51 0.37 0.34 0.44 0.32 0.12 0.03 0.00 0.00 0.00 0.00 0.00 0.00 0.00 0.00 0.00 0.00
0.00 0.00 0.00 0.00 0.00 0.00 0.00 0.00 0.00 0.00 0.00 0.01 0.02 0.08 0.14 0.35 0.58 0.40 0.34 0.36 0.29 0.08 0.01 0.00 0.00 0.00 0.00 0.00 0.00 0.00 0.00 0.00
0.00 0.00 0.00 0.00 0.00 0.00 0.00 0.00 0.00 0.00 0.00 0.00 0.01 0.02 0.09 0.16 0.32 0.47 0.47 0.36 0.33 0.21 0.10 0.01 0.00 0.00 0.01 0.00 0.00 0.00 0.00 0.00
0.00 0.00 0.00 0.00 0.00 0.00 0.00 0.00 0.00 0.00 0.00 0.00 0.00 0.01 0.04 0.07 0.17 0.22 0.36 0.44 0.44 0.36 0.17 0.08 0.02 0.01 0.01 0.01 0.00 0.01 0.00 0.00
0.00 0.00 0.00 0.00 0.00 0.00 0.00 0.00 0.00 0.00 0.00 0.00 0.00 0.01 0.02 0.04 0.05 0.05 0.09 0.20 0.42 0.38 0.36 0.21 0.08 0.03 0.02 0.02 0.01 0.01 0.01 0.00
0.00 0.00 0.00 0.00 0.00 0.00 0.00 0.00 0.00 0.00 0.00 0.00 0.00 0.00 0.00 0.00 0.01 0.01 0.02 0.05 0.11 0.20 0.19 0.12 0.10 0.09 0.08 0.07 0.05 0.02 0.01 0.01

GFSFLT2_prec_precacc12_102.txt.gz
Total_Precipitation_Accumulation
0.00 0.00 0.00 0.00 0.01 0.03 0.04 0.03 0.08 0.13 0.22 0.24 0.14 0.47 0.61 0.52 0.47 0.47 0.63 0.62 0.36 0.30 0.17 0.20 0.18 0.13 0.02 0.00 0.00 0.00 0.00 0.00
0.00 0.00 0.00 0.00 0.00 0.02 0.07 0.16 0.25 0.21 0.26 0.30 0.19 0.16 0.08 0.12 0.36 0.39 0.63 0.64 0.48 0.31 0.27 0.33 0.23 0.14 0.04 0.00 0.00 0.00 0.00 0.00
0.00 0.00 0.00 0.00 0.00 0.01 0.06 0.16 0.16 0.15 0.17 0.20 0.17 0.15 0.03 0.09 0.20 0.32 0.55 0.65 0.56 0.42 0.38 0.42 0.29 0.15 0.05 0.00 0.00 0.00 0.00 0.00
0.00 0.00 0.00 0.00 0.00 0.01 0.03 0.05 0.04 0.04 0.05 0.10 0.09 0.08 0.04 0.13 0.25 0.37 0.61 0.86 0.62 0.66 0.54 0.41 0.26 0.10 0.04 0.01 0.01 0.00 0.00 0.00
0.00 0.00 0.00 0.00 0.00 0.01 0.02 0.03 0.02 0.04 0.04 0.08 0.09 0.08 0.09 0.21 0.28 0.41 0.73 1.17 0.78 0.73 0.57 0.33 0.16 0.09 0.04 0.04 0.03 0.00 0.00 0.00
0.00 0.00 0.00 0.00 0.00 0.00 0.01 0.02 0.01 0.01 0.02 0.02 0.05 0.07 0.17 0.45 0.30 0.30 0.60 1.09 0.72 0.49 0.34 0.20 0.14 0.10 0.04 0.03 0.00 0.00 0.00 0.00
0.00 0.00 0.00 0.00 0.00 0.00 0.00 0.01 0.02 0.01 0.00 0.01 0.20 0.37 0.34 0.68 0.40 0.34 0.40 0.97 0.55 0.31 0.29 0.21 0.10 0.08 0.04 0.01 0.00 0.00 0.00 0.00
0.00 0.00 0.00 0.00 0.00 0.00 0.00 0.00 0.01 0.01 0.00 0.00 0.02 0.15 0.30 0.71 0.58 0.52 0.40 0.64 0.50 0.41 0.24 0.21 0.09 0.05 0.03 0.00 0.00 0.00 0.00 0.00
0.00 0.00 0.00 0.00 0.00 0.00 0.00 0.00 0.01 0.01 0.00 0.00 0.01 0.01 0.11 0.34 0.47 0.38 0.46 0.49 0.41 0.54 0.49 0.27 0.10 0.05 0.02 0.00 0.00 0.00 0.00 0.00
0.00 0.00 0.00 0.00 0.00 0.00 0.00 0.00 0.01 0.01 0.01 0.02 0.01 0.01 0.02 0.05 0.18 0.41 0.38 0.48 0.32 0.33 0.47 0.32 0.12 0.04 0.02 0.00 0.00 0.00 0.00 0.00
0.00 0.00 0.00 0.00 0.00 0.00 0.00 0.00 0.01 0.02 0.04 0.03 0.04 0.03 0.03 0.05 0.05 0.19 0.46 0.35 0.32 0.41 0.36 0.33 0.12 0.03 0.01 0.00 0.00 0.00 0.00 0.00
0.00 0.00 0.00 0.00 0.00 0.00 0.00 0.00 0.00 0.01 0.03 0.08 0.09 0.08 0.08 0.08 0.08 0.11 0.23 0.43 0.39 0.46 0.54 0.33 0.17 0.03 0.01 0.00 0.00 0.00 0.00 0.00
0.00 0.00 0.00 0.00 0.00 0.00 0.00 0.00 0.00 0.00 0.00 0.03 0.20 0.24 0.17 0.16 0.08 0.21 0.26 0.14 0.32 0.25 0.50 0.43 0.21 0.03 0.01 0.00 0.00 0.00 0.00 0.00
0.00 0.00 0.00 0.00 0.00 0.00 0.00 0.00 0.00 0.00 0.00 0.00 0.04 0.25 0.39 0.29 0.24 0.21 0.39 0.23 0.11 0.14 0.27 0.36 0.19 0.02 0.00 0.00 0.01 0.01 0.01 0.00
0.00 0.00 0.00 0.00 0.00 0.00 0.00 0.00 0.00 0.00 0.00 0.00 0.00 0.04 0.26 0.46 0.32 0.25 0.47 0.33 0.12 0.07 0.08 0.09 0.06 0.02 0.01 0.00 0.00 0.00 0.00 0.00
0.00 0.00 0.00 0.00 0.00 0.00 0.00 0.00 0.00 0.00 0.00 0.00 0.00 0.01 0.03 0.27 0.46 0.29 0.31 0.49 0.33 0.08 0.02 0.02 0.01 0.01 0.01 0.00 0.00 0.00 0.00 0.00
0.00 0.00 0.00 0.00 0.00 0.00 0.00 0.00 0.00 0.00 0.00 0.00 0.01 0.01 0.03 0.07 0.25 0.38 0.39 0.37 0.38 0.23 0.13 0.03 0.00 0.00 0.01 0.00 0.00 0.00 0.00 0.00
0.00 0.00 0.00 0.00 0.00 0.00 0.00 0.00 0.00 0.00 0.00 0.00 0.00 0.02 0.03 0.05 0.16 0.24 0.36 0.42 0.47 0.45 0.21 0.14 0.04 0.01 0.01 0.01 0.01 0.01 0.00 0.00
0.00 0.00 0.00 0.00 0.00 0.00 0.00 0.00 0.00 0.00 0.00 0.00 0.00 0.01 0.03 0.04 0.07 0.07 0.10 0.21 0.43 0.49 0.48 0.31 0.13 0.05 0.03 0.02 0.01 0.01 0.01 0.02
0.00 0.00 0.00 0.00 0.00 0.00 0.00 0.00 0.00 0.00 0.00 0.00 0.00 0.00 0.00 0.01 0.03 0.04 0.02 0.05 0.12 0.22 0.27 0.30 0.25 0.20 0.12 0.07 0.05 0.03 0.02 0.02

GFSFLT2_prec_precacc12_108.txt.gz
Total_Precipitation_Accumulation
0.00 0.00 0.00 0.00 0.00 0.00 0.00 0.00 0.01 0.01 0.12 0.16 0.08 0.01 0.00 0.00 0.00 0.01 0.04 0.14 0.20 0.25 0.22 0.34 0.48 0.44 0.21 0.18 0.07 0.08 0.07 0.30
0.00 0.00 0.00 0.00 0.00 0.00 0.00 0.00 0.00 0.02 0.12 0.14 0.06 0.05 0.02 0.00 0.00 0.01 0.01 0.08 0.26 0.34 0.45 0.60 0.53 0.42 0.31 0.25 0.15 0.08 0.02 0.03
0.00 0.00 0.00 0.00 0.00 0.00 0.01 0.02 0.03 0.06 0.08 0.07 0.08 0.12 0.07 0.02 0.02 0.02 0.02 0.10 0.23 0.42 0.59 0.63 0.50 0.40 0.27 0.20 0.11 0.02 0.04 0.00
0.00 0.00 0.00 0.00 0.00 0.01 0.02 0.04 0.04 0.05 0.05 0.07 0.09 0.06 0.08 0.05 0.07 0.08 0.08 0.20 0.34 0.52 0.58 0.46 0.36 0.25 0.17 0.12 0.04 0.04 0.04 0.00
0.00 0.00 0.00 0.00 0.00 0.01 0.02 0.04 0.04 0.07 0.11 0.17 0.17 0.16 0.13 0.09 0.15 0.07 0.13 0.30 0.44 0.57 0.55 0.42 0.26 0.24 0.22 0.14 0.19 0.12 0.04 0.00
0.00 0.00 0.00 0.00 0.00 0.00 0.01 0.02 0.02 0.03 0.06 0.08 0.10 0.11 0.12 0.13 0.14 0.10 0.11 0.29 0.43 0.46 0.37 0.31 0.32 0.34 0.28 0.23 0.17 0.11 0.04 0.00
0.00 0.00 0.00 0.00 0.00 0.00 0.00 0.01 0.02 0.02 0.03 0.03 0.05 0.08 0.05 0.08 0.14 0.18 0.15 0.28 0.39 0.32 0.40 0.31 0.34 0.35 0.35 0.30 0.12 0.15 0.03 0.00
0.00 0.00 0.00 0.00 0.00 0.00 0.00 0.00 0.01 0.01 0.01 0.01 0.02 0.05 0.07 0.10 0.19 0.34 0.24 0.25 0.35 0.45 0.31 0.39 0.37 0.48 0.31 0.24 0.19 0.16 0.02 0.00
0.00 0.00 0.00 0.00 0.00 0.00 0.00 0.00 0.01 0.01 0.00 0.01 0.01 0.02 0.07 0.10 0.17 0.26 0.35 0.42 0.34 0.63 0.61 0.45 0.47 0.72 0.42 0.26 0.14 0.10 0.02 0.00
0.00 0.00 0.00 0.00 0.00 0.00 0.00 0.00 0.00 0.01 0.01 0.01 0.01 0.01 0.05 0.10 0.13 0.33 0.34 0.50 0.34 0.42 0.68 0.50 0.45 0.63 0.61 0.31 0.19 0.06 0.02 0.00
0.00 0.00 0.00 0.00 0.00 0.00 0.00 0.00 0.00 0.01 0.01 0.01 0.01 0.01 0.04 0.07 0.07 0.16 0.46 0.37 0.34 0.45 0.55 0.60 0.40 0.50 0.62 0.42 0.19 0.03 0.01 0.00
0.00 0.00 0.00 0.00 0.00 0.00 0.00 0.00 0.00 0.00 0.01 0.02 0.02 0.02 0.03 0.08 0.07 0.03 0.25 0.45 0.42 0.58 0.69 0.65 0.53 0.43 0.55 0.51 0.14 0.00 0.00 0.00
0.00 0.00 0.00 0.00 0.00 0.00 0.00 0.00 0.00 0.00 0.01 0.01 0.02 0.03 0.06 0.07 0.09 0.02 0.02 0.12 0.35 0.46 0.81 0.86 0.72 0.50 0.59 0.58 0.20 0.04 0.00 0.00
0.00 0.00 0.00 0.00 0.00 0.00 0.00 0.00 0.00 0.00 0.00 0.01 0.04 0.06 0.09 0.15 0.06 0.03 0.03 0.04 0.10 0.28 0.59 1.02 0.88 0.53 0.41 0.20 0.09 0.03 0.04 0.01
0.00 0.00 0.00 0.00 0.00 0.00 0.00 0.00 0.01 0.01 0.01 0.00 0.01 0.04 0.14 0.18 0.18 0.06 0.13 0.13 0.05 0.07 0.21 0.66 0.66 0.54 0.18 0.06 0.02 0.02 0.03 0.03
0.00 0.00 0.00 0.00 0.00 0.00 0.00 0.00 0.00 0.00 0.00 0.00 0.00 0.01 0.03 0.18 0.22 0.16 0.12 0.32 0.25 0.07 0.04 0.26 0.48 0.32 0.20 0.10 0.02 0.01 0.01 0.02
0.00 0.00 0.00 0.00 0.00 0.00 0.00 0.00 0.00 0.00 0.00 0.00 0.00 0.01 0.01 0.05 0.16 0.17 0.14 0.13 0.20 0.22 0.12 0.08 0.23 0.25 0.17 0.11 0.09 0.05 0.02 0.01
0.00 0.00 0.00 0.00 0.00 0.00 0.00 0.00 0.00 0.00 0.00 0.00 0.00 0.01 0.01 0.03 0.07 0.09 0.08 0.07 0.21 0.28 0.18 0.13 0.06 0.11 0.16 0.13 0.08 0.06 0.02 0.01
0.00 0.00 0.00 0.00 0.00 0.00 0.00 0.00 0.00 0.00 0.00 0.00 0.00 0.01 0.02 0.02 0.07 0.07 0.03 0.05 0.07 0.27 0.45 0.29 0.12 0.06 0.05 0.05 0.04 0.02 0.02 0.02
0.00 0.00 0.00 0.00 0.00 0.00 0.00 0.00 0.00 0.00 0.00 0.00 0.00 0.00 0.00 0.01 0.04 0.08 0.03 0.02 0.06 0.11 0.24 0.36 0.38 0.27 0.15 0.11 0.07 0.03 0.02 0.02

GFSFLT2_prec_precacc12_114.txt.gz
Total_Precipitation_Accumulation
0.00 0.00 0.00 0.00 0.00 0.00 0.00 0.00 0.00 0.00 0.03 0.04 0.04 0.01 0.01 0.02 0.00 0.00 0.00 0.00 0.00 0.03 0.12 0.19 0.38 0.40 0.20 0.26 0.28 0.31 0.24 0.69
0.00 0.00 0.00 0.00 0.00 0.00 0.00 0.00 0.00 0.00 0.02 0.03 0.01 0.01 0.02 0.01 0.02 0.00 0.00 0.00 0.00 0.08 0.22 0.29 0.32 0.31 0.43 0.41 0.31 0.25 0.07 0.12
0.00 0.00 0.00 0.00 0.00 0.00 0.00 0.00 0.00 0.00 0.01 0.01 0.05 0.09 0.07 0.02 0.00 0.01 0.07 0.00 0.03 0.07 0.22 0.21 0.21 0.28 0.26 0.24 0.18 0.13 0.12 0.06
0.00 0.00 0.00 0.00 0.00 0.00 0.00 0.01 0.01 0.02 0.02 0.01 0.03 0.04 0.07 0.04 0.04 0.03 0.05 0.03 0.03 0.08 0.06 0.05 0.10 0.15 0.14 0.11 0.03 0.06 0.08 0.07
0.00 0.00 0.00 0.00 0.00 0.00 0.00 0.01 0.01 0.04 0.08 0.10 0.10 0.11 0.10 0.08 0.16 0.09 0.05 0.06 0.06 0.06 0.02 0.08 0.10 0.16 0.18 0.10 0.17 0.13 0.11 0.07
0.00 0.00 0.00 0.00 0.00 0.00 0.00 0.00 0.01 0.02 0.04 0.06 0.08 0.10 0.11 0.11 0.11 0.16 0.06 0.05 0.08 0.07 0.04 0.10 0.17 0.24 0.24 0.20 0.17 0.15 0.13 0.07
0.00 0.00 0.00 0.00 0.00 0.00 0.00 0.00 0.00 0.01 0.02 0.02 0.04 0.08 0.05 0.08 0.08 0.10 0.09 0.14 0.11 0.06 0.12 0.11 0.24 0.28 0.31 0.29 0.13 0.20 0.11 0.12
0.00 0.00 0.00 0.00 0.00 0.00 0.00 0.00 0.00 0.00 0.01 0.01 0.01 0.05 0.06 0.07 0.08 0.04 0.07 0.12 0.14 0.10 0.09 0.18 0.28 0.43 0.29 0.25 0.20 0.23 0.08 0.08
0.00 0.00 0.00 0.00 0.00 0.00 0.00 0.00 0.00 0.00 0.00 0.01 0.01 0.01 0.04 0.07 0.05 0.04 0.05 0.14 0.13 0.15 0.13 0.18 0.37 0.68 0.41 0.28 0.18 0.24 0.12 0.04
0.00 0.00 0.00 0.00 0.00 0.00 0.00 0.00 0.00 0.00 0.01 0.01 0.00 0.01 0.03 0.08 0.06 0.06 0.07 0.12 0.10 0.13 0.22 0.18 0.34 0.62 0.62 0.35 0.28 0.23 0.28 0.07
0.00 0.00 0.00 0.00 0.00 0.00 0.00 0.00 0.00 0.00 0.00 0.01 0.01 0.01 0.02 0.04 0.04 0.04 0.05 0.06 0.04 0.07 0.20 0.27 0.29 0.48 0.66 0.51 0.36 0.28 0.32 0.27
0.00 0.00 0.00 0.00 0.00 0.01 0.00 0.00 0.00 0.00 0.00 0.01 0.01 0.01 0.02 0.04 0.05 0.02 0.04 0.04 0.04 0.13 0.16 0.32 0.36 0.41 0.58 0.66 0.36 0.38 0.31 0.36
0.00 0.00 0.00 0.00 0.00 0.01 0.00 0.00 0.00 0.00 0.00 0.00 0.01 0.01 0.02 0.05 0.08 0.02 0.01 0.01 0.05 0.22 0.32 0.44 0.53 0.49 0.78 0.89 0.69 0.36 0.35 0.29
0.00 0.00 0.00 0.00 0.00 0.01 0.04 0.01 0.00 0.00 0.00 0.00 0.00 0.01 0.01 0.05 0.05 0.00 0.00 0.01 0.03 0.15 0.34 0.68 0.72 0.57 0.65 0.74 0.58 0.38 0.28 0.35
0.00 0.00 0.00 0.00 0.00 0.06 0.08 0.06 0.03 0.01 0.00 0.00 0.00 0.01 0.03 0.04 0.04 0.01 0.00 0.01 0.02 0.03 0.15 0.59 0.61 0.61 0.37 0.45 0.19 0.20 0.13 0.24
0.00 0.00 0.00 0.00 0.00 0.00 0.01 0.00 0.00 0.00 0.00 0.00 0.00 0.00 0.01 0.03 0.03 0.02 0.00 0.02 0.02 0.02 0.03 0.24 0.50 0.47 0.49 0.45 0.10 0.04 0.05 0.14
0.00 0.03 0.12 0.11 0.08 0.04 0.01 0.01 0.00 0.00 0.00 0.00 0.00 0.00 0.01 0.03 0.03 0.02 0.02 0.02 0.04 0.06 0.01 0.05 0.24 0.31 0.36 0.35 0.31 0.14 0.10 0.07
0.00 0.00 0.04 0.16 0.13 0.14 0.12 0.07 0.02 0.01 0.00 0.00 0.01 0.01 0.00 0.01 0.04 0.04 0.03 0.02 0.04 0.03 0.02 0.01 0.03 0.14 0.29 0.24 0.25 0.20 0.13 0.08
0.00 0.00 0.00 0.02 0.03 0.02 0.02 0.02 0.03 0.01 0.00 0.00 0.00 0.02 0.00 0.00 0.03 0.04 0.02 0.02 0.01 0.06 0.14 0.08 0.02 0.04 0.07 0.13 0.20 0.18 0.18 0.17
0.00 0.00 0.00 0.00 0.01 0.00 0.00 0.01 0.03 0.01 0.00 0.00 0.00 0.01 0.01 0.00 0.01 0.04 0.02 0.01 0.01 0.01 0.06 0.13 0.19 0.09 0.06 0.06 0.09 0.16 0.19 0.16

GFSFLT2_prec_precacc12_117.txt.gz
Total_Precipitation_Accumulation
0.00 0.00 0.00 0.00 0.00 0.00 0.00 0.00 0.00 0.00 0.00 0.02 0.02 0.01 0.01 0.02 0.00 0.00 0.00 0.00 0.00 0.02 0.08 0.13 0.27 0.26 0.13 0.18 0.25 0.30 0.24 0.68
0.00 0.00 0.00 0.00 0.00 0.00 0.00 0.00 0.00 0.00 0.00 0.01 0.01 0.00 0.02 0.01 0.02 0.00 0.00 0.00 0.00 0.05 0.08 0.09 0.13 0.25 0.43 0.41 0.32 0.26 0.07 0.12
0.00 0.00 0.00 0.00 0.00 0.00 0.00 0.00 0.00 0.00 0.00 0.00 0.02 0.02 0.01 0.00 0.00 0.00 0.06 0.00 0.01 0.03 0.07 0.01 0.07 0.13 0.13 0.17 0.19 0.20 0.12 0.06
0.00 0.00 0.00 0.00 0.00 0.00 0.00 0.00 0.00 0.00 0.00 0.00 0.01 0.02 0.02 0.01 0.03 0.02 0.01 0.01 0.01 0.03 0.01 0.00 0.01 0.01 0.02 0.04 0.02 0.14 0.09 0.08
0.00 0.00 0.00 0.00 0.00 0.00 0.00 0.00 0.00 0.00 0.01 0.02 0.03 0.03 0.04 0.05 0.11 0.08 0.01 0.01 0.04 0.03 0.00 0.00 0.00 0.01 0.04 0.05 0.07 0.12 0.11 0.09
0.00 0.00 0.00 0.00 0.00 0.00 0.00 0.00 0.00 0.00 0.01 0.02 0.02 0.02 0.03 0.05 0.06 0.12 0.03 0.02 0.06 0.02 0.00 0.00 0.01 0.05 0.04 0.10 0.13 0.15 0.13 0.07
0.00 0.00 0.00 0.00 0.00 0.00 0.00 0.00 0.00 0.00 0.00 0.00 0.02 0.03 0.03 0.06 0.06 0.09 0.07 0.08 0.06 0.03 0.01 0.00 0.02 0.06 0.07 0.14 0.10 0.20 0.11 0.12
0.00 0.00 0.00 0.00 0.00 0.00 0.00 0.00 0.00 0.00 0.00 0.00 0.01 0.02 0.04 0.06 0.07 0.04 0.05 0.04 0.06 0.04 0.01 0.01 0.02 0.04 0.11 0.14 0.19 0.23 0.08 0.08
0.00 0.00 0.00 0.00 0.00 0.00 0.00 0.00 0.00 0.00 0.00 0.00 0.00 0.01 0.02 0.04 0.02 0.02 0.01 0.04 0.06 0.08 0.06 0.02 0.04 0.23 0.24 0.23 0.18 0.24 0.12 0.04
0.00 0.00 0.00 0.00 0.00 0.00 0.00 0.00 0.00 0.00 0.00 0.00 0.00 0.00 0.00 0.02 0.02 0.02 0.02 0.04 0.08 0.06 0.03 0.02 0.09 0.32 0.50 0.32 0.28 0.23 0.28 0.07
0.00 0.00 0.00 0.00 0.00 0.00 0.00 0.00 0.00 0.00 0.00 0.00 0.00 0.00 0.00 0.01 0.01 0.02 0.03 0.04 0.02 0.03 0.02 0.01 0.06 0.25 0.54 0.48 0.37 0.28 0.32 0.27
0.00 0.00 0.00 0.00 0.00 0.01 0.00 0.00 0.00 0.00 0.00 0.00 0.00 0.00 0.00 0.01 0.01 0.02 0.04 0.03 0.01 0.01 0.01 0.03 0.11 0.22 0.49 0.63 0.37 0.38 0.31 0.37
0.00 0.00 0.00 0.00 0.00 0.01 0.01 0.00 0.00 0.00 0.00 0.00 0.00 0.00 0.00 0.01 0.02 0.02 0.01 0.01 0.01 0.01 0.03 0.11 0.23 0.28 0.71 0.87 0.66 0.35 0.36 0.31
0.00 0.00 0.00 0.00 0.00 0.01 0.05 0.03 0.03 0.06 0.04 0.00 0.00 0.00 0.00 0.01 0.02 0.00 0.00 0.00 0.01 0.02 0.07 0.20 0.34 0.42 0.64 0.77 0.62 0.40 0.27 0.36
0.00 0.00 0.00 0.00 0.00 0.06 0.09 0.10 0.14 0.14 0.04 0.00 0.00 0.00 0.00 0.01 0.02 0.00 0.00 0.00 0.00 0.01 0.03 0.19 0.33 0.50 0.37 0.47 0.21 0.21 0.13 0.24
0.00 0.00 0.00 0.01 0.03 0.01 0.02 0.01 0.00 0.00 0.00 0.00 0.00 0.00 0.00 0.01 0.02 0.00 0.00 0.00 0.00 0.00 0.01 0.07 0.27 0.41 0.46 0.42 0.09 0.03 0.04 0.14
0.00 0.03 0.12 0.12 0.10 0.07 0.06 0.08 0.06 0.02 0.00 0.00 0.00 0.01 0.00 0.01 0.01 0.00 0.00 0.00 0.00 0.00 0.00 0.04 0.16 0.27 0.34 0.33 0.30 0.13 0.12 0.12
0.00 0.00 0.04 0.16 0.16 0.18 0.18 0.15 0.11 0.10 0.04 0.03 0.02 0.04 0.02 0.01 0.01 0.01 0.00 0.00 0.00 0.00 0.00 0.01 0.04 0.14 0.28 0.24 0.25 0.20 0.18 0.20
0.00 0.00 0.00 0.03 0.04 0.06 0.04 0.05 0.06 0.04 0.06 0.06 0.05 0.04 0.01 0.01 0.02 0.01 0.00 0.00 0.00 0.01 0.02 0.01 0.01 0.03 0.07 0.12 0.19 0.19 0.19 0.24
0.00 0.00 0.00 0.00 0.01 0.01 0.00 0.02 0.05 0.03 0.01 0.02 0.01 0.01 0.02 0.00 0.02 0.02 0.01 0.00 0.00 0.01 0.01 0.03 0.03 0.03 0.03 0.03 0.08 0.17 0.20 0.17

GFSFLT2_prec_precacc12_120.txt.gz
Total_Precipitation_Accumulation
0.00 0.00 0.00 0.00 0.00 0.00 0.00 0.00 0.00 0.00 0.00 0.00 0.00 0.00 0.01 0.02 0.00 0.00 0.00 0.01 0.01 0.02 0.04 0.05 0.09 0.09 0.01 0.09 0.22 0.23 0.17 0.40
0.00 0.00 0.00 0.00 0.00 0.00 0.00 0.00 0.00 0.00 0.00 0.00 0.00 0.00 0.00 0.01 0.02 0.00 0.00 0.00 0.00 0.01 0.01 0.01 0.04 0.11 0.23 0.21 0.21 0.18 0.05 0.09
0.00 0.00 0.00 0.00 0.00 0.00 0.00 0.00 0.00 0.00 0.00 0.00 0.00 0.00 0.00 0.00 0.00 0.00 0.06 0.00 0.01 0.02 0.00 0.00 0.03 0.04 0.05 0.04 0.11 0.21 0.09 0.06
0.00 0.00 0.00 0.00 0.00 0.00 0.00 0.00 0.00 0.00 0.00 0.00 0.00 0.00 0.00 0.00 0.00 0.01 0.01 0.01 0.00 0.00 0.00 0.00 0.01 0.00 0.00 0.01 0.05 0.15 0.06 0.08
0.00 0.00 0.00 0.00 0.00 0.00 0.00 0.00 0.00 0.00 0.00 0.00 0.00 0.00 0.00 0.00 0.03 0.04 0.01 0.00 0.00 0.00 0.00 0.00 0.00 0.00 0.00 0.00 0.01 0.03 0.07 0.08
0.00 0.00 0.00 0.00 0.00 0.00 0.00 0.00 0.00 0.00 0.00 0.00 0.00 0.00 0.00 0.00 0.01 0.08 0.01 0.01 0.03 0.00 0.00 0.00 0.00 0.00 0.00 0.00 0.00 0.04 0.09 0.07
0.00 0.00 0.00 0.00 0.00 0.00 0.00 0.00 0.00 0.00 0.00 0.00 0.00 0.00 0.00 0.01 0.02 0.05 0.04 0.04 0.01 0.00 0.00 0.00 0.01 0.00 0.00 0.00 0.00 0.05 0.08 0.12
0.00 0.00 0.00 0.00 0.00 0.00 0.00 0.00 0.00 0.00 0.00 0.00 0.00 0.00 0.00 0.00 0.02 0.01 0.04 0.03 0.03 0.00 0.00 0.00 0.00 0.00 0.01 0.01 0.01 0.07 0.06 0.08
0.00 0.00 0.00 0.00 0.00 0.00 0.00 0.00 0.00 0.00 0.00 0.00 0.00 0.00 0.00 0.00 0.00 0.01 0.01 0.01 0.02 0.00 0.00 0.00 0.00 0.01 0.01 0.02 0.04 0.14 0.10 0.04
0.00 0.00 0.00 0.00 0.00 0.00 0.00 0.00 0.00 0.00 0.00 0.00 0.00 0.00 0.00 0.00 0.00 0.00 0.00 0.00 0.02 0.02 0.00 0.00 0.01 0.02 0.03 0.05 0.09 0.17 0.26 0.06
0.00 0.00 0.00 0.00 0.00 0.01 0.01 0.00 0.00 0.00 0.00 0.00 0.00 0.00 0.00 0.00 0.00 0.00 0.00 0.00 0.00 0.02 0.01 0.00 0.00 0.01 0.05 0.10 0.17 0.24 0.31 0.27
0.00 0.00 0.00 0.00 0.00 0.01 0.00 0.00 0.00 0.00 0.00 0.00 0.00 0.00 0.00 0.00 0.00 0.00 0.00 0.01 0.01 0.01 0.00 0.00 0.00 0.01 0.05 0.16 0.25 0.38 0.31 0.37
0.00 0.00 0.00 0.00 0.00 0.01 0.01 0.00 0.00 0.01 0.00 0.00 0.00 0.00 0.00 0.00 0.00 0.00 0.00 0.01 0.01 0.02 0.03 0.03 0.04 0.04 0.24 0.37 0.52 0.33 0.36 0.31
0.00 0.00 0.00 0.00 0.00 0.01 0.05 0.03 0.03 0.06 0.04 0.00 0.00 0.00 0.00 0.00 0.00 0.00 0.00 0.00 0.01 0.03 0.04 0.05 0.07 0.11 0.30 0.59 0.55 0.39 0.26 0.36
0.00 0.00 0.00 0.00 0.00 0.06 0.09 0.11 0.14 0.15 0.06 0.01 0.00 0.00 0.00 0.00 0.00 0.00 0.00 0.00 0.00 0.00 0.01 0.03 0.04 0.13 0.23 0.43 0.20 0.20 0.12 0.22
0.00 0.00 0.00 0.01 0.03 0.01 0.03 0.01 0.01 0.01 0.01 0.01 0.01 0.01 0.00 0.00 0.00 0.00 0.00 0.00 0.00 0.00 0.01 0.01 0.03 0.18 0.33 0.38 0.09 0.04 0.04 0.13
0.00 0.03 0.12 0.12 0.10 0.07 0.06 0.08 0.07 0.04 0.02 0.01 0.02 0.08 0.07 0.00 0.00 0.00 0.00 0.00 0.00 0.00 0.00 0.01 0.02 0.08 0.21 0.25 0.25 0.12 0.12 0.11
0.00 0.00 0.04 0.16 0.16 0.18 0.19 0.17 0.14 0.10 0.04 0.03 0.07 0.18 0.11 0.04 0.01 0.00 0.00 0.00 0.00 0.00 0.00 0.00 0.01 0.05 0.16 0.13 0.18 0.17 0.17 0.21
0.00 0.00 0.00 0.03 0.05 0.07 0.06 0.07 0.07 0.04 0.06 0.08 0.15 0.21 0.13 0.06 0.05 0.02 0.00 0.00 0.00 0.00 0.00 0.01 0.01 0.02 0.05 0.11 0.18 0.18 0.18 0.24
0.00 0.00 0.00 0.00 0.01 0.01 0.01 0.04 0.06 0.03 0.01 0.04 0.04 0.12 0.11 0.04 0.03 0.02 0.01 0.02 0.02 0.01 0.01 0.01 0.01 0.01 0.02 0.03 0.08 0.16 0.19 0.17

GFSFLT2_prec_precacc12_123.txt.gz
Total_Precipitation_Accumulation
0.00 0.00 0.00 0.00 0.00 0.00 0.00 0.00 0.00 0.00 0.00 0.00 0.00 0.00 0.00 0.00 0.00 0.00 0.00 0.01 0.01 0.00 0.00 0.00 0.00 0.00 0.00 0.02 0.01 0.01 0.02 0.19
0.00 0.00 0.00 0.00 0.00 0.00 0.00 0.00 0.00 0.00 0.00 0.00 0.00 0.00 0.00 0.00 0.00 0.00 0.00 0.01 0.00 0.00 0.00 0.00 0.02 0.11 0.22 0.18 0.10 0.02 0.00 0.02
0.00 0.00 0.00 0.00 0.00 0.00 0.00 0.00 0.00 0.00 0.00 0.00 0.00 0.00 0.00 0.00 0.00 0.00 0.04 0.00 0.00 0.00 0.00 0.00 0.03 0.04 0.05 0.04 0.09 0.17 0.02 0.02
0.00 0.00 0.00 0.00 0.00 0.00 0.00 0.00 0.00 0.00 0.00 0.00 0.00 0.00 0.00 0.00 0.00 0.01 0.01 0.01 0.00 0.00 0.00 0.00 0.01 0.00 0.00 0.01 0.05 0.14 0.01 0.04
0.00 0.00 0.00 0.00 0.00 0.00 0.00 0.00 0.00 0.00 0.00 0.00 0.00 0.00 0.00 0.00 0.00 0.00 0.00 0.00 0.00 0.00 0.00 0.00 0.00 0.00 0.00 0.00 0.01 0.02 0.00 0.02
0.00 0.00 0.00 0.00 0.00 0.00 0.00 0.00 0.00 0.00 0.00 0.00 0.00 0.00 0.00 0.00 0.00 0.00 0.00 0.01 0.00 0.00 0.00 0.00 0.00 0.00 0.00 0.00 0.00 0.00 0.00 0.02
0.00 0.00 0.00 0.00 0.00 0.00 0.00 0.00 0.00 0.00 0.00 0.00 0.00 0.00 0.00 0.00 0.00 0.00 0.00 0.00 0.00 0.00 0.00 0.00 0.01 0.00 0.00 0.00 0.00 0.00 0.01 0.05
0.00 0.00 0.00 0.00 0.00 0.00 0.00 0.00 0.00 0.00 0.00 0.00 0.00 0.00 0.00 0.00 0.00 0.00 0.01 0.01 0.01 0.00 0.00 0.00 0.00 0.00 0.00 0.00 0.00 0.00 0.00 0.04
0.00 0.00 0.00 0.00 0.00 0.00 0.00 0.00 0.00 0.00 0.00 0.00 0.00 0.00 0.00 0.00 0.00 0.00 0.00 0.00 0.01 0.00 0.00 0.00 0.00 0.00 0.00 0.00 0.00 0.00 0.01 0.02
0.00 0.00 0.00 0.00 0.00 0.00 0.00 0.00 0.00 0.00 0.00 0.00 0.00 0.00 0.00 0.00 0.00 0.00 0.00 0.00 0.00 0.00 0.00 0.00 0.00 0.00 0.00 0.01 0.00 0.01 0.03 0.03
0.00 0.00 0.00 0.00 0.00 0.01 0.01 0.01 0.00 0.00 0.00 0.00 0.00 0.00 0.00 0.00 0.00 0.00 0.00 0.00 0.00 0.00 0.00 0.00 0.00 0.00 0.00 0.02 0.01 0.02 0.13 0.24
0.00 0.00 0.00 0.00 0.00 0.01 0.01 0.01 0.01 0.01 0.00 0.00 0.00 0.00 0.00 0.00 0.00 0.00 0.00 0.00 0.00 0.00 0.00 0.00 0.00 0.01 0.02 0.03 0.03 0.03 0.14 0.36
0.00 0.00 0.00 0.00 0.00 0.01 0.01 0.01 0.01 0.02 0.00 0.00 0.00 0.00 0.00 0.00 0.00 0.00 0.00 0.00 0.01 0.01 0.02 0.02 0.03 0.03 0.07 0.09 0.04 0.03 0.14 0.28
0.00 0.00 0.00 0.01 0.00 0.01 0.06 0.04 0.03 0.08 0.05 0.00 0.00 0.00 0.00 0.00 0.00 0.00 0.00 0.00 0.01 0.02 0.04 0.05 0.07 0.07 0.09 0.10 0.14 0.13 0.17 0.34
0.00 0.00 0.00 0.00 0.00 0.07 0.13 0.12 0.15 0.15 0.06 0.01 0.00 0.01 0.00 0.00 0.00 0.00 0.00 0.00 0.00 0.00 0.01 0.02 0.03 0.04 0.05 0.06 0.08 0.10 0.09 0.22
0.00 0.00 0.00 0.01 0.03 0.02 0.03 0.01 0.01 0.01 0.01 0.02 0.05 0.05 0.02 0.01 0.00 0.00 0.00 0.00 0.00 0.00 0.01 0.01 0.02 0.03 0.06 0.08 0.05 0.03 0.04 0.12
0.00 0.01 0.09 0.12 0.10 0.08 0.07 0.08 0.07 0.04 0.02 0.01 0.05 0.11 0.16 0.08 0.06 0.04 0.02 0.02 0.01 0.00 0.00 0.01 0.02 0.02 0.02 0.09 0.19 0.09 0.08 0.09
0.00 0.00 0.01 0.11 0.15 0.19 0.19 0.17 0.14 0.10 0.04 0.03 0.07 0.23 0.19 0.16 0.17 0.17 0.17 0.12 0.05 0.01 0.00 0.00 0.01 0.02 0.03 0.06 0.12 0.11 0.12 0.17
0.00 0.00 0.01 0.01 0.04 0.07 0.06 0.07 0.07 0.05 0.06 0.08 0.16 0.27 0.15 0.08 0.09 0.09 0.05 0.03 0.02 0.01 0.01 0.01 0.01 0.01 0.02 0.02 0.07 0.09 0.10 0.18
0.00 0.01 0.02 0.02 0.02 0.03 0.03 0.05 0.07 0.05 0.02 0.06 0.08 0.19 0.13 0.09 0.08 0.06 0.02 0.03 0.03 0.04 0.05 0.02 0.01 0.01 0.01 0.01 0.03 0.10 0.15 0.16

GFSFLT2_prec_precacc12_126.txt.gz
Total_Precipitation_Accumulation
0.00 0.00 0.00 0.00 0.00 0.00 0.00 0.00 0.00 0.00 0.00 0.00 0.00 0.00 0.00 0.00 0.00 0.00 0.00 0.01 0.01 0.00 0.00 0.00 0.00 0.00 0.00 0.00 0.01 0.00 0.05 0.10
0.00 0.00 0.00 0.00 0.00 0.00 0.00 0.00 0.00 0.00 0.00 0.00 0.00 0.00 0.00 0.00 0.00 0.00 0.00 0.01 0.00 0.00 0.00 0.00 0.02 0.07 0.07 0.04 0.05 0.01 0.03 0.04
0.00 0.00 0.00 0.00 0.00 0.00 0.00 0.00 0.00 0.00 0.00 0.00 0.00 0.00 0.00 0.00 0.00 0.01 0.03 0.00 0.00 0.00 0.00 0.00 0.03 0.02 0.01 0.00 0.04 0.11 0.01 0.05
0.00 0.00 0.00 0.00 0.00 0.00 0.00 0.00 0.00 0.00 0.00 0.00 0.00 0.00 0.00 0.00 0.00 0.02 0.05 0.03 0.00 0.00 0.00 0.00 0.01 0.00 0.00 0.00 0.05 0.13 0.01 0.07
0.00 0.00 0.00 0.00 0.00 0.00 0.00 0.00 0.00 0.00 0.00 0.00 0.00 0.00 0.00 0.00 0.00 0.01 0.01 0.01 0.00 0.00 0.00 0.00 0.00 0.00 0.00 0.00 0.01 0.01 0.00 0.02
0.00 0.00 0.00 0.00 0.00 0.00 0.00 0.00 0.00 0.00 0.00 0.00 0.00 0.00 0.00 0.00 0.00 0.00 0.01 0.01 0.01 0.00 0.00 0.00 0.00 0.00 0.00 0.00 0.00 0.00 0.00 0.00
0.00 0.00 0.00 0.00 0.00 0.00 0.00 0.00 0.00 0.00 0.00 0.00 0.00 0.00 0.00 0.00 0.00 0.01 0.00 0.01 0.01 0.00 0.01 0.00 0.00 0.00 0.00 0.00 0.00 0.00 0.00 0.00
0.00 0.00 0.00 0.00 0.00 0.00 0.00 0.00 0.00 0.00 0.00 0.00 0.00 0.00 0.00 0.00 0.00 0.00 0.00 0.00 0.00 0.00 0.00 0.00 0.00 0.00 0.00 0.00 0.00 0.00 0.00 0.00
0.00 0.00 0.00 0.00 0.00 0.00 0.00 0.00 0.00 0.00 0.00 0.00 0.00 0.00 0.00 0.00 0.00 0.00 0.00 0.00 0.00 0.00 0.00 0.00 0.01 0.01 0.01 0.00 0.00 0.00 0.00 0.00
0.00 0.00 0.00 0.00 0.00 0.00 0.00 0.00 0.00 0.00 0.00 0.00 0.00 0.00 0.00 0.00 0.00 0.00 0.00 0.00 0.00 0.00 0.00 0.00 0.00 0.01 0.01 0.01 0.01 0.00 0.00 0.00
0.00 0.00 0.00 0.00 0.00 0.01 0.01 0.01 0.00 0.00 0.00 0.00 0.00 0.00 0.00 0.00 0.00 0.00 0.00 0.00 0.00 0.00 0.00 0.00 0.00 0.00 0.01 0.02 0.02 0.01 0.00 0.00
0.00 0.00 0.00 0.00 0.00 0.00 0.01 0.01 0.01 0.01 0.00 0.00 0.00 0.00 0.00 0.00 0.00 0.00 0.00 0.00 0.00 0.00 0.00 0.00 0.00 0.01 0.01 0.03 0.03 0.02 0.01 0.02
0.00 0.00 0.00 0.00 0.00 0.00 0.01 0.01 0.01 0.02 0.00 0.00 0.00 0.00 0.00 0.00 0.00 0.00 0.00 0.00 0.00 0.01 0.02 0.02 0.02 0.02 0.06 0.06 0.03 0.01 0.01 0.02
0.00 0.00 0.00 0.01 0.00 0.00 0.01 0.02 0.03 0.08 0.05 0.01 0.00 0.00 0.00 0.00 0.00 0.00 0.00 0.00 0.00 0.01 0.03 0.03 0.05 0.05 0.07 0.05 0.08 0.04 0.01 0.02
0.00 0.00 0.00 0.01 0.00 0.02 0.07 0.06 0.12 0.14 0.06 0.01 0.01 0.01 0.00 0.00 0.00 0.00 0.00 0.00 0.00 0.00 0.01 0.02 0.03 0.04 0.04 0.05 0.04 0.03 0.01 0.02
0.00 0.00 0.00 0.01 0.07 0.09 0.05 0.01 0.01 0.01 0.01 0.03 0.05 0.06 0.03 0.01 0.00 0.00 0.00 0.00 0.00 0.00 0.01 0.01 0.02 0.03 0.05 0.04 0.02 0.01 0.01 0.02
0.00 0.00 0.00 0.01 0.07 0.26 0.19 0.10 0.07 0.04 0.02 0.01 0.05 0.12 0.17 0.08 0.06 0.05 0.04 0.04 0.04 0.01 0.01 0.01 0.02 0.02 0.02 0.01 0.04 0.04 0.05 0.07
0.00 0.00 0.00 0.01 0.04 0.08 0.27 0.24 0.13 0.10 0.05 0.03 0.07 0.23 0.21 0.17 0.19 0.19 0.21 0.22 0.12 0.04 0.01 0.00 0.01 0.02 0.02 0.02 0.02 0.03 0.07 0.14
0.03 0.02 0.01 0.01 0.02 0.05 0.04 0.07 0.05 0.04 0.07 0.09 0.18 0.27 0.15 0.09 0.14 0.17 0.09 0.06 0.03 0.01 0.01 0.01 0.01 0.01 0.01 0.01 0.02 0.03 0.03 0.09
0.02 0.03 0.03 0.02 0.02 0.04 0.03 0.06 0.05 0.05 0.04 0.09 0.11 0.21 0.14 0.13 0.11 0.18 0.16 0.11 0.03 0.03 0.05 0.04 0.02 0.01 0.01 0.01 0.01 0.02 0.03 0.03

GFSFLT2_prec_precacc12_132.txt.gz
Total_Precipitation_Accumulation
0.00 0.00 0.00 0.00 0.00 0.00 0.00 0.00 0.00 0.00 0.00 0.00 0.00 0.00 0.00 0.00 0.00 0.00 0.00 0.00 0.00 0.00 0.00 0.00 0.00 0.00 0.00 0.00 0.00 0.00 0.13 0.28
0.01 0.00 0.00 0.00 0.00 0.00 0.00 0.00 0.00 0.00 0.00 0.00 0.00 0.00 0.00 0.00 0.00 0.00 0.00 0.01 0.00 0.00 0.00 0.00 0.00 0.00 0.00 0.00 0.00 0.00 0.06 0.08
0.01 0.01 0.00 0.00 0.00 0.00 0.00 0.00 0.00 0.00 0.00 0.00 0.00 0.00 0.00 0.00 0.00 0.01 0.04 0.01 0.00 0.00 0.00 0.00 0.00 0.00 0.00 0.00 0.00 0.00 0.02 0.10
0.00 0.01 0.01 0.00 0.00 0.00 0.00 0.00 0.00 0.00 0.00 0.00 0.00 0.00 0.00 0.00 0.00 0.01 0.07 0.08 0.00 0.00 0.00 0.00 0.00 0.00 0.00 0.00 0.00 0.01 0.03 0.14
0.00 0.00 0.00 0.01 0.00 0.00 0.00 0.00 0.00 0.00 0.00 0.00 0.00 0.00 0.02 0.01 0.03 0.00 0.01 0.01 0.00 0.00 0.00 0.00 0.00 0.00 0.03 0.01 0.00 0.03 0.02 0.02
0.00 0.00 0.00 0.03 0.01 0.00 0.00 0.00 0.00 0.00 0.00 0.00 0.00 0.00 0.02 0.01 0.03 0.02 0.02 0.01 0.01 0.00 0.00 0.00 0.00 0.00 0.03 0.02 0.02 0.03 0.05 0.06
0.00 0.00 0.01 0.02 0.01 0.00 0.00 0.00 0.00 0.00 0.00 0.00 0.00 0.00 0.01 0.01 0.02 0.02 0.01 0.02 0.01 0.01 0.00 0.01 0.00 0.00 0.00 0.00 0.01 0.00 0.01 0.02
0.00 0.00 0.00 0.04 0.15 0.01 0.01 0.00 0.00 0.00 0.00 0.00 0.00 0.00 0.00 0.01 0.01 0.01 0.01 0.02 0.02 0.02 0.01 0.02 0.01 0.00 0.01 0.00 0.00 0.00 0.00 0.02
0.00 0.00 0.00 0.00 0.06 0.09 0.01 0.02 0.00 0.00 0.00 0.00 0.00 0.00 0.00 0.01 0.00 0.01 0.01 0.01 0.02 0.02 0.03 0.02 0.02 0.02 0.02 0.01 0.00 0.00 0.00 0.00
0.00 0.00 0.00 0.00 0.02 0.08 0.03 0.00 0.00 0.00 0.00 0.00 0.00 0.00 0.00 0.01 0.00 0.00 0.01 0.02 0.01 0.01 0.01 0.01 0.01 0.02 0.02 0.03 0.01 0.00 0.00 0.00
0.00 0.00 0.00 0.00 0.06 0.07 0.03 0.04 0.00 0.00 0.00 0.00 0.00 0.00 0.00 0.01 0.00 0.00 0.00 0.01 0.01 0.00 0.01 0.00 0.01 0.02 0.02 0.04 0.03 0.01 0.02 0.01
0.00 0.00 0.00 0.00 0.03 0.15 0.17 0.16 0.09 0.02 0.00 0.00 0.00 0.00 0.00 0.00 0.00 0.00 0.00 0.00 0.00 0.00 0.00 0.00 0.00 0.01 0.01 0.02 0.02 0.02 0.02 0.02
0.00 0.00 0.00 0.00 0.04 0.14 0.16 0.13 0.09 0.09 0.00 0.00 0.00 0.00 0.00 0.00 0.00 0.00 0.00 0.00 0.00 0.00 0.01 0.01 0.01 0.01 0.03 0.03 0.02 0.01 0.01 0.01
0.00 0.00 0.00 0.01 0.00 0.04 0.13 0.17 0.13 0.05 0.02 0.00 0.00 0.00 0.00 0.00 0.00 0.00 0.00 0.00 0.00 0.00 0.01 0.01 0.01 0.02 0.02 0.02 0.02 0.01 0.01 0.00
0.00 0.00 0.00 0.02 0.01 0.09 0.19 0.17 0.18 0.15 0.09 0.00 0.01 0.01 0.00 0.00 0.00 0.00 0.00 0.00 0.00 0.00 0.01 0.00 0.01 0.01 0.02 0.02 0.01 0.01 0.00 0.00
0.00 0.00 0.00 0.04 0.15 0.32 0.28 0.22 0.23 0.10 0.04 0.03 0.04 0.04 0.03 0.01 0.01 0.00 0.00 0.00 0.00 0.00 0.00 0.00 0.01 0.01 0.02 0.01 0.01 0.00 0.00 0.00
0.00 0.00 0.00 0.01 0.09 0.41 0.47 0.41 0.19 0.10 0.08 0.05 0.04 0.05 0.10 0.08 0.06 0.05 0.04 0.05 0.04 0.01 0.00 0.01 0.01 0.02 0.01 0.01 0.01 0.01 0.01 0.01
0.01 0.01 0.00 0.00 0.01 0.12 0.40 0.79 1.19 1.38 1.06 0.54 0.22 0.19 0.19 0.17 0.22 0.23 0.23 0.23 0.13 0.05 0.03 0.01 0.02 0.03 0.03 0.02 0.01 0.01 0.01 0.02
0.14 0.07 0.04 0.02 0.03 0.06 0.13 0.29 0.60 1.10 1.71 2.32 1.73 1.18 0.87 0.62 0.24 0.21 0.13 0.09 0.07 0.04 0.04 0.02 0.03 0.03 0.03 0.03 0.02 0.03 0.02 0.02
0.21 0.20 0.19 0.11 0.07 0.09 0.15 0.15 0.21 0.50 0.56 0.94 1.30 1.43 1.12 1.31 0.62 0.25 0.23 0.18 0.12 0.12 0.08 0.06 0.03 0.03 0.02 0.02 0.05 0.04 0.03 0.03

GFSFLT2_prec_precacc12_135.txt.gz
Total_Precipitation_Accumulation
0.00 0.00 0.00 0.00 0.00 0.00 0.00 0.00 0.00 0.00 0.00 0.00 0.00 0.00 0.00 0.00 0.00 0.00 0.00 0.00 0.00 0.00 0.00 0.00 0.00 0.00 0.00 0.00 0.00 0.01 0.14 0.31
0.01 0.00 0.00 0.00 0.00 0.00 0.00 0.00 0.00 0.00 0.00 0.00 0.00 0.00 0.00 0.00 0.00 0.00 0.00 0.00 0.00 0.00 0.00 0.00 0.00 0.00 0.00 0.00 0.00 0.00 0.07 0.14
0.01 0.01 0.00 0.00 0.00 0.00 0.00 0.00 0.00 0.00 0.00 0.00 0.00 0.00 0.00 0.00 0.00 0.01 0.04 0.01 0.00 0.00 0.00 0.00 0.00 0.00 0.00 0.00 0.00 0.00 0.04 0.14
0.00 0.01 0.01 0.00 0.00 0.00 0.00 0.00 0.00 0.00 0.00 0.00 0.00 0.00 0.00 0.00 0.00 0.01 0.07 0.08 0.00 0.00 0.00 0.00 0.00 0.00 0.00 0.00 0.00 0.02 0.10 0.13
0.00 0.00 0.03 0.02 0.00 0.00 0.00 0.00 0.00 0.00 0.00 0.00 0.00 0.00 0.02 0.01 0.03 0.00 0.01 0.01 0.00 0.00 0.00 0.00 0.00 0.00 0.03 0.01 0.00 0.04 0.09 0.06
0.00 0.02 0.09 0.25 0.18 0.04 0.00 0.00 0.00 0.00 0.00 0.00 0.00 0.00 0.02 0.01 0.03 0.02 0.02 0.01 0.01 0.00 0.00 0.00 0.00 0.00 0.03 0.02 0.02 0.05 0.08 0.08
0.00 0.00 0.04 0.14 0.25 0.31 0.22 0.01 0.00 0.00 0.00 0.00 0.00 0.00 0.01 0.01 0.02 0.02 0.01 0.02 0.01 0.01 0.00 0.01 0.00 0.00 0.00 0.00 0.02 0.04 0.03 0.03
0.00 0.00 0.00 0.05 0.21 0.09 0.17 0.15 0.06 0.00 0.00 0.00 0.00 0.00 0.00 0.01 0.01 0.01 0.01 0.02 0.02 0.02 0.01 0.02 0.01 0.00 0.01 0.00 0.00 0.00 0.00 0.02
0.00 0.00 0.00 0.00 0.07 0.13 0.10 0.22 0.25 0.10 0.01 0.00 0.00 0.00 0.00 0.00 0.00 0.01 0.01 0.01 0.02 0.02 0.03 0.02 0.02 0.02 0.02 0.01 0.00 0.00 0.00 0.00
0.00 0.00 0.00 0.00 0.04 0.17 0.12 0.16 0.29 0.19 0.08 0.00 0.00 0.00 0.00 0.01 0.00 0.00 0.01 0.02 0.01 0.01 0.01 0.01 0.01 0.02 0.02 0.03 0.01 0.00 0.00 0.00
0.00 0.00 0.00 0.00 0.06 0.10 0.10 0.11 0.19 0.15 0.10 0.03 0.01 0.00 0.00 0.00 0.01 0.00 0.00 0.01 0.01 0.00 0.01 0.00 0.01 0.02 0.02 0.04 0.03 0.01 0.02 0.01
0.00 0.00 0.00 0.00 0.03 0.15 0.19 0.29 0.26 0.25 0.25 0.17 0.10 0.01 0.00 0.00 0.00 0.00 0.00 0.00 0.01 0.01 0.00 0.00 0.00 0.01 0.01 0.02 0.02 0.01 0.02 0.02
0.00 0.00 0.00 0.00 0.04 0.14 0.15 0.15 0.15 0.15 0.20 0.25 0.21 0.07 0.00 0.00 0.00 0.00 0.00 0.00 0.00 0.00 0.01 0.01 0.00 0.01 0.02 0.02 0.02 0.01 0.01 0.01
0.00 0.00 0.00 0.00 0.00 0.04 0.12 0.17 0.17 0.08 0.08 0.21 0.28 0.15 0.03 0.00 0.00 0.00 0.00 0.00 0.00 0.00 0.01 0.01 0.01 0.01 0.01 0.01 0.01 0.01 0.00 0.00
0.00 0.00 0.00 0.02 0.01 0.08 0.16 0.16 0.18 0.18 0.18 0.09 0.05 0.13 0.03 0.01 0.00 0.00 0.00 0.00 0.00 0.00 0.00 0.00 0.01 0.01 0.02 0.01 0.01 0.00 0.00 0.00
0.00 0.00 0.00 0.04 0.14 0.31 0.28 0.23 0.24 0.10 0.04 0.07 0.07 0.18 0.10 0.00 0.00 0.00 0.00 0.00 0.00 0.00 0.00 0.01 0.01 0.01 0.02 0.01 0.01 0.00 0.00 0.00
0.00 0.00 0.00 0.01 0.09 0.40 0.47 0.42 0.19 0.11 0.14 0.26 0.25 0.20 0.23 0.10 0.02 0.01 0.02 0.03 0.03 0.01 0.00 0.01 0.01 0.02 0.01 0.01 0.01 0.01 0.01 0.01
0.01 0.01 0.00 0.00 0.01 0.12 0.41 0.79 1.20 1.40 1.16 0.76 0.52 0.44 0.46 0.35 0.13 0.08 0.07 0.12 0.09 0.05 0.03 0.02 0.05 0.03 0.03 0.02 0.01 0.00 0.01 0.01
0.14 0.07 0.04 0.02 0.03 0.06 0.16 0.30 0.61 1.11 1.78 2.48 2.37 1.83 1.65 1.60 0.84 0.35 0.20 0.10 0.06 0.08 0.06 0.03 0.06 0.09 0.06 0.03 0.02 0.02 0.01 0.01
0.21 0.20 0.18 0.09 0.07 0.09 0.19 0.19 0.23 0.51 0.67 1.02 1.86 2.42 2.17 2.40 2.47 1.67 1.05 0.56 0.39 0.34 0.18 0.11 0.07 0.11 0.10 0.05 0.05 0.04 0.03 0.04